STARLINK-33671, 63320

Orbit data source: Space-Track

STARLINK-33671, 63320 is a payload satellite owned by SpaceX/Seattle (US) in LEO that was launched on Tue, 18 Mar 2025 UTC via an FALCON 9 launch vehicle from the Air Force Eastern Test Range (AFETR). Payload-class satellites include a variety of spacecraft equipped with specific instruments for various scientific and technological missions. These include communications satellites like Starlink; space stations such as the ISS; scientific satellites like the Hubble; Earth observation satellites from companies like Planet Labs, Umbra, and HawkEye 360; GPS; miniature CubeSats for education and research; and military/defense satellites.

Loading next visibility...
Identifier
63320, 2025-057P
Orbit
LEO
Last TLE update
11 hours ago
Origin
Manufacturer
SpaceX/Seattle
Mission
Operational Commercial Communications
Bus & Motor
STARLINK V2MO, Unknown motor
Mass
575 kg wet, ~530 kg dry
Launch date (UTC)
2025-03-18 (2 months ago)
Launch vehicle
FALCON 9
Launch site
Air Force Eastern Test Range (AFETR)
Object type
Payload
Rocket body
Debris
Shape & HBR
Box + 1 Pan, 29 m
Radar Cross Section
41.120 m², Large (>1 m²)

Expand to show TLE details & history

TLE from 11 hours ago
0 STARLINK-33671
1 63320U 25057P   25128.81305673  .00001862  00000-0  51837-4 0  9999
2 63320  42.9992 311.5020 0001241 281.3286  78.7431 15.40685575  9163
Epoch: 2025-05-08T19:30Z
Definitive object data (Epoch: 2025-05-08T19:30:48.101Z)
Latitude
-0.00002°
Longitude
151.92339°
Altitude
443.694 km
Speed
7.648 km/s
True Right ascension
20h 46m 00s
True Declination
0° 00' 00"
Sunlit
Object was in daylight at TLE epoch
Visualization TLE readout
Latitude
25.39536°
Longitude
179.6838°
Altitude
444.334 km
Speed
7.649 km/s
Apparent Right ascension
00h 24m 30s
Apparent Declination
-6° 56' 57"
Sunlit
Object is in daylight
Visualization observer readout
Local Sidereal Time
14:43:10
Azimuth
52.641° ENE
Elevation
-44.733°
Doppler factor
1
Orbital elements
Apogee altitude
446.888 km
Perigee altitude
445.194 km
Semi-major axis
6,824.178 km
Eccentricity
0.0001241
Inclination
42.9992°
RAAN
311.502°
Arg. of periapsis
281.3286°
True anomaly
78.75705°
Mean anomaly
78.7431°
Eccentric anomaly
78.75007°
Mean motion
3.85006 °/min
BSTAR
0.000051837
Orbital period
93.51 mins
Loading maneuver chart data...
Loading SW <> Apogee altitude chart data...
Loading historical data...
Loading historical data...
Loading historical data...
Loading historical data...
Loading historical data...
Loading historical data...
Loading historical data...

STARLINK-33671 Visibility forecast

Observer location: undefined°, undefined°

Span
Click to sort rows by Start time (UTC) header in descending order
Start Az.
Max El. time (UTC)
Max El. Az.
Max El.
End time (UTC)
End Az.
5 mins2025-05-09 15:59:19.246Z231.148° WSW2025-05-09 16:01:19.246Z143.174° SSE41.518°2025-05-09 16:04:19.246Z76.324° E
5 mins2025-05-09 17:37:19.246Z284.039° WNW2025-05-09 17:39:19.246Z352.013° N38.415°2025-05-09 17:42:19.246Z70.04° E
5 mins2025-05-09 19:15:19.246Z293.813° NW2025-05-09 19:17:19.246Z337.99° N40.212°2025-05-09 19:20:19.246Z90.963° ESE
4 mins2025-05-09 20:54:19.246Z257.145° W2025-05-09 20:55:19.246Z224.859° SW31.713°2025-05-09 20:58:19.246Z142.269° SSE
|